Weather 🌤️

Recent data

Temperatures

Wind

Pressure

Humidity & Precipitation

Last data
obsTime qcStatus tempAvg heatindexAvg windspeedAvg windgustAvg winddirAvg pressureAvg humidityAvg precipRate precipTotal
2026-09-01 18:59:55 1 26.2 26.1 3.7 7.9 264 998.14 45 0 0
2026-09-01 18:54:55 1 26.3 26.1 4.2 9 267 998.14 45.6 0 0
2026-09-01 18:49:55 1 26.2 26.1 3.5 9 263 998.31 46 0 0
2026-09-01 18:44:56 1 26.2 26.1 4.1 9 296 998.14 46 0 0
2026-09-01 18:39:55 1 26.3 26.2 2.8 9 276 998.31 46 0 0
2026-09-01 18:34:55 1 26.3 26.2 1.6 11 210 998.14 46 0 0
2026-09-01 18:29:53 1 26.2 26.1 2.5 11.1 221 998.31 46 0 0
2026-09-01 18:24:56 1 26.2 26 3.7 11.1 265 998.31 46 0 0
2026-09-01 18:19:55 1 26 25.9 2.1 11.1 242 998.14 46 0 0
2026-09-01 18:14:55 1 26.1 25.9 2.3 11.1 219 998.48 46.8 0 0
2026-09-01 18:09:55 1 26.1 26 2.2 11.1 257 998.48 46.5 0 0
2026-09-01 18:04:55 1 26 25.9 4.1 11.1 240 998.48 46.7 0 0

Hourly data

Temperatures

Wind

Pressure

Humidity & Precipitation

Last data
obsTime qcStatus tempAvg heatindexAvg windspeedAvg windgustAvg winddirAvg pressureAvg humidityAvg precipRate precipTotal
2026-09-01 18:59:55 1 26.2 26.1 3.1 10.1 251 998.31 46.1 0 0
2026-09-01 17:59:54 1 26.1 26 4.1 11.4 249 998.65 46.9 0 0
2026-09-01 16:59:53 1 25.8 25.7 3.8 10.7 257 998.99 48.7 0 0
2026-09-01 15:59:56 1 25.2 25.1 3.6 10.9 264 999.32 50.3 0 0
2026-09-01 14:59:55 1 24.7 24.5 3.7 8.8 251 1000 52.1 0 0
2026-09-01 13:59:55 1 24.2 24 3.2 7.5 213 1000.34 53.5 0 0
2026-09-01 12:59:55 1 23.4 23.3 3.1 7.2 201 1001.02 56 0 0
2026-09-01 11:59:55 1 22 21.8 3 9.6 218 1001.36 59.9 0 0
2026-09-01 10:59:55 1 19.8 19.8 2.2 5.8 201 1001.53 63.6 0 0
2026-09-01 09:59:55 1 18.3 18.3 1.1 3.9 189 1001.53 66.2 0 0
2026-09-01 08:59:56 1 17.4 17.4 0.4 2.9 184 1001.69 67 0 0
2026-09-01 07:59:56 0 17.2 17.2 0.5 2.8 174 1001.36 66.7 0 0
2026-09-01 06:59:56 0 18 18 0.2 2.8 214 1001.02 65.6 0 0
2026-09-01 05:59:56 0 18.6 18.6 0.4 2.8 177 1001.02 64.1 0 0
2026-09-01 04:59:54 0 19.4 19.4 0.4 3.4 226 1001.36 62.9 0 0
2026-09-01 03:59:52 0 19.8 19.8 1.1 5.6 231 1001.36 61.8 0 0
2026-09-01 02:59:56 0 20.2 20.2 2.1 4 226 1001.36 60.5 0 0
2026-09-01 01:59:55 0 20.7 20.7 0.2 2.6 178 1001.36 58.9 0 0
2026-09-01 00:59:53 0 21.3 21 0.1 6.9 199 1001.02 57.2 0 0
2026-08-31 23:59:51 0 22 21.7 3.7 11.4 232 1001.02 55.1 0 0
2026-08-31 22:59:51 0 22.6 22.4 4.6 13.5 227 1000.68 54 0 0
2026-08-31 21:59:51 0 23.4 23.2 4.9 11.9 227 1000.34 52.8 0 0
2026-08-31 20:59:56 0 24.3 24.1 7.2 16.7 230 999.83 50 0 0
2026-08-31 19:59:56 1 25.2 25 5.4 16.4 226 999.32 47.5 0 0